Location: Newark
(35.2672°N, 80.7344°W)
Time: 03:28:48
(UTC+00:00)

Tiros 1 - Pass Details

Date: 27 January 2020
Orbit: 631 x 664 km, 48.4° (Epoch: 18 February)

Event Time Altitude Azimuth Distance (km) Brightness Sun altitude
Rises 14:56:10 0° 185° (S) 2,903 11.1 24.3°
Reaches altitude 10° 14:59:29 10° 160° (SSE) 2,005 11.1 24.7°
Maximum altitude 15:01:52 14° 128° (SE) 1,760 11.4 25.1°
Drops below altitude 10° 15:04:16 10° 97° (E) 2,020 10.5 25.4°
Sets 15:07:37 0° 72° (ENE) 2,941 10.8 25.8°
